TRITON-1

Last updated on Thu Oct 30 2025 00:03:50 GMT+0000 (Coordinated Universal Time)

1 39427U 13066M 25302.50111122 .00004936 00000+0 61348-3 0 9992 2 39427 97.8282 212.6853 0090947 265.6227 93.4590 14.80100178639940
UTC large
Height (km)
Speed (km/s)
/
Latitude / Longitude
Inclination (degrees)
Orbital Period (minutes)
Azimuth
Elevation
Range (km)
Doppler Factor

Next 0 passes for location: London (51.5072 / 0.1276)

Sorry there are no passes over London.